| time (UTC) | temp F | wind direction | speed MPH | gust MPH | rain 1hr in | rain 24hr in | rain mn in | humidity % | barometer mb |
| 20260831081610 | 61 | 163 | 2.0 | 7.0 | 0.00 | 0.00 | 0.00 | 83 | 1023.7 |
| 20260831080139 | 61 | 148 | 1.0 | 7.0 | 0.00 | 0.00 | 0.00 | 83 | 1023.6 |
| 20260831074607 | 61 | 123 | 2.0 | 6.0 | 0.00 | 0.00 | 0.00 | 82 | 1023.4 |
| 20260831073118 | 61 | 163 | 2.0 | 8.0 | 0.00 | 0.00 | 0.00 | 82 | 1023.4 |
| 20260831071609 | 61 | 137 | 2.0 | 4.0 | 0.00 | 0.00 | 0.00 | 83 | 1023.2 |
| 20260831070109 | 60 | 234 | 2.0 | 6.0 | 0.00 | 0.00 | 0.00 | 85 | 1023.1 |
| 20260831064609 | 60 | 140 | 1.0 | 4.0 | 0.00 | 0.00 | 0.00 | 85 | 1023.1 |
| 20260831063107 | 59 | 113 | 1.0 | 5.0 | 0.00 | 0.00 | 0.00 | 87 | 1023.0 |
| 20260831061606 | 59 | 167 | 0.0 | 4.0 | 0.00 | 0.00 | 0.00 | 86 | 1022.9 |
| 20260831060113 | 59 | 164 | 2.0 | 5.0 | 0.00 | 0.00 | 0.00 | 87 | 1022.8 |
| 20260831054609 | 59 | 0 | 0.0 | 5.0 | 0.00 | 0.00 | 0.00 | 87 | 1022.8 |
| 20260831053108 | 59 | 0 | 0.0 | 6.0 | 0.00 | 0.00 | 0.00 | 86 | 1022.7 |
| 20260831051610 | 59 | 0 | 1.0 | 6.0 | 0.00 | 0.00 | 0.00 | 87 | 1022.4 |
| 20260831050112 | 59 | 146 | 0.0 | 4.0 | 0.00 | 0.00 | 0.00 | 87 | 1022.3 |
| 20260831044608 | 60 | 142 | 1.0 | 7.0 | 0.00 | 0.00 | 0.00 | 87 | 1022.3 |
| 20260831043105 | 60 | 178 | 0.0 | 3.0 | 0.00 | 0.00 | 0.00 | 87 | 1022.3 |
| 20260831041610 | 60 | 0 | 0.0 | 3.0 | 0.00 | 0.00 | 0.00 | 86 | 1022.5 |
| 20260831040110 | 61 | 148 | 1.0 | 9.0 | 0.00 | 0.00 | 0.00 | 86 | 1022.6 |
| 20260831034612 | 61 | 132 | 1.0 | 5.0 | 0.00 | 0.00 | 0.00 | 86 | 1022.6 |
| 20260831033110 | 61 | 220 | 1.0 | 3.0 | 0.00 | 0.00 | 0.00 | 86 | 1022.8 |
| 20260831031602 | 60 | 232 | 0.0 | 2.0 | 0.00 | 0.00 | 0.00 | 87 | 1022.8 |
| 20260831030108 | 60 | 236 | 0.0 | 3.0 | 0.00 | 0.00 | 0.00 | 87 | 1022.7 |
| 20260831024609 | 60 | 236 | 1.0 | 3.0 | 0.00 | 0.00 | 0.00 | 87 | 1022.6 |
| 20260831023107 | 60 | 0 | 0.0 | 3.0 | 0.00 | 0.00 | 0.00 | 86 | 1022.6 |
| 20260831021605 | 61 | 0 | 0.0 | 3.0 | 0.00 | 0.00 | 0.00 | 86 | 1022.7 |
| 20260831020108 | 61 | 163 | 1.0 | 4.0 | 0.00 | 0.00 | 0.00 | 85 | 1022.7 |
| 20260831014604 | 62 | 104 | 0.0 | 2.0 | 0.00 | 0.00 | 0.00 | 85 | 1022.7 |
| 20260831013117 | 62 | 102 | 0.0 | 2.0 | 0.00 | 0.00 | 0.00 | 84 | 1022.8 |
| 20260831011609 | 62 | 205 | 0.0 | 3.0 | 0.00 | 0.00 | 0.00 | 84 | 1022.7 |
| 20260831010128 | 63 | 0 | 0.0 | 3.0 | 0.00 | 0.00 | 0.00 | 83 | 1022.6 |
| 20260831004612 | 63 | 0 | 0.0 | 3.0 | 0.00 | 0.00 | 0.00 | 83 | 1022.6 |
| 20260831003107 | 64 | 0 | 0.0 | 3.0 | 0.00 | 0.00 | 0.00 | 82 | 1022.6 |
| 20260831001607 | 64 | 104 | 1.0 | 7.0 | 0.00 | 0.00 | 0.00 | 82 | 1022.2 |
| 20260831000108 | 65 | 123 | 2.0 | 7.0 | 0.00 | 0.00 | 0.00 | 81 | 1022.7 |
| 20260830234610 | 65 | 0 | 1.0 | 4.0 | 0.00 | 0.00 | 0.00 | 82 | 1022.4 |
| 20260830233105 | 65 | 134 | 2.0 | 8.0 | 0.00 | 0.00 | 0.00 | 83 | 1022.5 |
| 20260830231603 | 66 | 263 | 1.0 | 5.0 | 0.00 | 0.00 | 0.00 | 82 | 1022.6 |
| 20260830230106 | 66 | 148 | 1.0 | 4.0 | 0.00 | 0.00 | 0.00 | 80 | 1022.6 |
| 20260830224608 | 65 | 162 | 1.0 | 2.0 | 0.00 | 0.00 | 0.00 | 77 | 1022.4 |
| 20260830223106 | 65 | 107 | 1.0 | 3.0 | 0.00 | 0.00 | 0.00 | 77 | 1022.3 |
| 20260830221604 | 63 | 0 | 0.0 | 2.0 | 0.00 | 0.00 | 0.00 | 78 | 1022.1 |
| 20260830220107 | 63 | 0 | 0.0 | 0.0 | 0.00 | 0.00 | 0.00 | 78 | 1022.0 |
| 20260830214604 | 63 | 0 | 0.0 | 1.0 | 0.00 | 0.00 | 0.00 | 78 | 1021.6 |
| 20260830213107 | 63 | 0 | 0.0 | 0.0 | 0.00 | 0.00 | 0.00 | 77 | 1021.4 |
| 20260830211608 | 63 | 0 | 0.0 | 0.0 | 0.00 | 0.00 | 0.00 | 76 | 1021.4 |
| 20260830210108 | 63 | 0 | 0.0 | 0.0 | 0.00 | 0.00 | 0.00 | 76 | 1021.3 |
| 20260830204606 | 64 | 0 | 0.0 | 1.0 | 0.00 | 0.00 | 0.00 | 73 | 1021.2 |
| 20260830203104 | 64 | 0 | 0.0 | 0.0 | 0.00 | 0.00 | 0.00 | 72 | 1021.0 |
| 20260830201607 | 65 | 0 | 0.0 | 0.0 | 0.00 | 0.00 | 0.00 | 71 | 1020.8 |
| 20260830200114 | 66 | 0 | 0.0 | 0.0 | 0.00 | 0.00 | 0.00 | 68 | 1020.5 |
| 20260830194614 | 67 | 0 | 0.0 | 0.0 | 0.00 | 0.00 | 0.00 | 67 | 1020.2 |
| 20260830193104 | 69 | 0 | 0.0 | 0.0 | 0.00 | 0.00 | 0.00 | 65 | 1020.2 |
| 20260830191613 | 69 | 0 | 0.0 | 0.0 | 0.00 | 0.00 | 0.00 | 64 | 1020.1 |
| 20260830190121 | 70 | 0 | 0.0 | 3.0 | 0.00 | 0.00 | 0.00 | 64 | 1019.9 |
| 20260830184608 | 71 | 0 | 0.0 | 1.0 | 0.00 | 0.00 | 0.00 | 62 | 1019.7 |
| 20260830183111 | 72 | 0 | 0.0 | 1.0 | 0.00 | 0.00 | 0.00 | 60 | 1019.4 |
| 20260830181608 | 73 | 123 | 0.0 | 2.0 | 0.00 | 0.00 | 0.00 | 58 | 1019.1 |
| 20260830180111 | 74 | 123 | 0.0 | 2.0 | 0.00 | 0.00 | 0.00 | 56 | 1019.1 |
| 20260830174644 | 75 | 123 | 0.0 | 2.0 | 0.00 | 0.00 | 0.00 | 55 | 1018.6 |
| 20260830173109 | 76 | 124 | 0.0 | 5.0 | 0.00 | 0.00 | 0.00 | 51 | 1018.6 |
| 20260830171614 | 77 | 117 | 2.0 | 8.0 | 0.00 | 0.00 | 0.00 | 49 | 1018.3 |
| 20260830170112 | 78 | 102 | 2.0 | 8.0 | 0.00 | 0.00 | 0.00 | 49 | 1018.1 |
| 20260830164606 | 78 | 66 | 1.0 | 5.0 | 0.00 | 0.00 | 0.00 | 48 | 1018.0 |
| 20260830163107 | 78 | 212 | 0.0 | 2.0 | 0.00 | 0.00 | 0.00 | 45 | 1017.8 |
| 20260830161619 | 79 | 0 | 0.0 | 2.0 | 0.00 | 0.00 | 0.00 | 41 | 1017.7 |
| 20260830160109 | 80 | 121 | 1.0 | 3.0 | 0.00 | 0.00 | 0.00 | 39 | 1017.8 |
| 20260830154606 | 83 | 222 | 0.0 | 5.0 | 0.00 | 0.00 | 0.00 | 37 | 1018.0 |
| 20260830153109 | 84 | 0 | 0.0 | 5.0 | 0.00 | 0.00 | 0.00 | 38 | 1018.0 |
| 20260830151605 | 84 | 104 | 2.0 | 7.0 | 0.00 | 0.00 | 0.00 | 35 | 1018.1 |
| 20260830150128 | 84 | 84 | 2.0 | 8.0 | 0.00 | 0.00 | 0.00 | 37 | 1018.2 |
| 20260830144611 | 84 | 105 | 2.0 | 8.0 | 0.00 | 0.00 | 0.00 | 38 | 1018.3 |
| 20260830143111 | 84 | 0 | 0.0 | 2.0 | 0.00 | 0.00 | 0.00 | 36 | 1018.3 |
| 20260830141611 | 84 | 76 | 1.0 | 5.0 | 0.00 | 0.00 | 0.00 | 39 | 1018.5 |
| 20260830140118 | 84 | 114 | 2.0 | 5.0 | 0.00 | 0.00 | 0.00 | 40 | 1018.6 |
| 20260830134609 | 86 | 0 | 1.0 | 4.0 | 0.00 | 0.00 | 0.00 | 38 | 1018.8 |
| 20260830133109 | 85 | 231 | 3.0 | 8.0 | 0.00 | 0.00 | 0.00 | 38 | 1019.1 |
| 20260830131612 | 85 | 279 | 3.0 | 8.0 | 0.00 | 0.00 | 0.00 | 36 | 1019.1 |
| 20260830130106 | 84 | 240 | 1.0 | 5.0 | 0.00 | 0.00 | 0.00 | 38 | 1019.2 |
| 20260830124606 | 83 | 160 | 1.0 | 5.0 | 0.00 | 0.00 | 0.00 | 39 | 1019.3 |
| 20260830123109 | 84 | 261 | 3.0 | 7.0 | 0.00 | 0.00 | 0.00 | 38 | 1019.4 |
| 20260830121609 | 83 | 232 | 2.0 | 6.0 | 0.00 | 0.00 | 0.00 | 41 | 1019.4 |
| 20260830120110 | 82 | 0 | 0.0 | 7.0 | 0.00 | 0.00 | 0.00 | 41 | 1019.4 |
| 20260830114609 | 81 | 360 | 3.0 | 7.0 | 0.00 | 0.00 | 0.00 | 43 | 1019.6 |
| 20260830113108 | 81 | 244 | 4.0 | 8.0 | 0.00 | 0.00 | 0.00 | 43 | 1019.8 |
| 20260830111606 | 80 | 211 | 2.0 | 7.0 | 0.00 | 0.00 | 0.00 | 46 | 1019.6 |
| 20260830110106 | 80 | 134 | 2.0 | 6.0 | 0.00 | 0.00 | 0.00 | 47 | 1019.8 |
| 20260830104608 | 79 | 256 | 3.0 | 9.0 | 0.00 | 0.00 | 0.00 | 48 | 1020.1 |
| 20260830103111 | 78 | 178 | 2.0 | 6.0 | 0.00 | 0.00 | 0.00 | 50 | 1020.2 |
| 20260830101609 | 77 | 264 | 5.0 | 12.0 | 0.00 | 0.00 | 0.00 | 49 | 1020.4 |
| 20260830100105 | 77 | 0 | 2.0 | 6.0 | 0.00 | 0.00 | 0.00 | 54 | 1020.3 |
| 20260830094634 | 76 | 144 | 1.0 | 4.0 | 0.00 | 0.00 | 0.00 | 54 | 1020.5 |
| 20260830093106 | 76 | 155 | 2.0 | 5.0 | 0.00 | 0.00 | 0.00 | 56 | 1020.4 |
| 20260830091604 | 75 | 213 | 1.0 | 3.0 | 0.00 | 0.00 | 0.00 | 56 | 1020.3 |
| 20260830090108 | 74 | 149 | 1.0 | 3.0 | 0.00 | 0.00 | 0.00 | 60 | 1020.4 |
| 20260830084609 | 73 | 159 | 0.0 | 4.0 | 0.00 | 0.00 | 0.00 | 60 | 1020.6 |
| 20260830083123 | 72 | 0 | 0.0 | 0.0 | 0.00 | 0.00 | 0.00 | 64 | 1020.7 |